When you browse on this site, cookies collect data to enhance your experience and personalize the content and advertising you see.
Visit our Privacy Policy to learn more. By continuing to use the site, you agree to this use of cookies and data.
  • In Österreich
  • Länderverzeichnis
  • Für 7 Tage
  • Wassertemperatur
  • Wetterkarte
  • News
  • Widgets
  • user-avatar
    Anmelden

    Stündliche Wetter Prince George

    Heute, 3 Juni, Mittwoch

    Zeit Temperatur Niederschläge Wind Luftdruck Luftfeuchtigkeit
    00:00 +3°C° 0 mm 3 m/S 703 mmHg 86%
    01:00 +2°C° 0 mm 3 m/S 703 mmHg 87%
    02:00 +3°C° 0 mm 2 m/S 703 mmHg 88%
    03:00 +2°C° 0 mm 2 m/S 703 mmHg 89%
    04:00 +3°C° 0 mm 1 m/S 703 mmHg 91%
    05:00 +4°C° 0 mm 2 m/S 703 mmHg 84%
    06:00 +5°C° 0 mm 2 m/S 704 mmHg 76%
    07:00 +7°C° 0 mm 3 m/S 704 mmHg 68%
    08:00 +9°C° 0 mm 3 m/S 703 mmHg 60%
    09:00 +11°C° 0 mm 3 m/S 703 mmHg 51%
    10:00 +13°C° 0 mm 3 m/S 703 mmHg 42%
    11:00 +15°C° 0 mm 2 m/S 703 mmHg 39%
    12:00 +15°C° 0 mm 2 m/S 702 mmHg 37%
    13:00 +16°C° 0 mm 2 m/S 702 mmHg 34%
    14:00 +16°C° 0 mm 2 m/S 701 mmHg 34%
    15:00 +17°C° 0 mm 2 m/S 701 mmHg 34%
    16:00 +17°C° 0 mm 2 m/S 701 mmHg 34%
    17:00 +16°C° 0 mm 2 m/S 700 mmHg 41%
    18:00 +15°C° 0 mm 2 m/S 700 mmHg 48%
    19:00 +14°C° 0 mm 2 m/S 700 mmHg 55%
    20:00 +12°C° 0 mm 2 m/S 700 mmHg 61%
    21:00 +10°C° 0 mm 1 m/S 700 mmHg 68%
    22:00 +8°C° 0 mm 1 m/S 701 mmHg 75%
    23:00 +7°C° 0 mm 1 m/S 701 mmHg 78%

    Morgen, 4 Juni, Donnerstag

    Zeit Temperatur Niederschläge Wind Luftdruck Luftfeuchtigkeit
    00:00 +6°C° 0 mm 1 m/S 700 mmHg 81%
    01:00 +5°C° 0 mm 1 m/S 700 mmHg 84%
    02:00 +5°C° 0 mm 1 m/S 701 mmHg 86%
    03:00 +4°C° 0 mm 1 m/S 701 mmHg 88%
    04:00 +4°C° 0 mm 1 m/S 701 mmHg 90%
    05:00 +6°C° 0 mm 1 m/S 701 mmHg 81%
    06:00 +8°C° 0 mm 1 m/S 701 mmHg 71%
    07:00 +11°C° 0 mm 1 m/S 701 mmHg 62%
    08:00 +13°C° 0 mm 1 m/S 701 mmHg 54%
    09:00 +15°C° 0 mm 1 m/S 701 mmHg 47%
    10:00 +18°C° 0 mm 1 m/S 701 mmHg 39%
    11:00 +19°C° 0 mm 1 m/S 700 mmHg 37%
    12:00 +20°C° 0 mm 1 m/S 700 mmHg 35%
    13:00 +21°C° 0 mm 1 m/S 699 mmHg 32%
    14:00 +19°C° 0 mm 0 m/S 699 mmHg 33%
    15:00 +19°C° 0 mm 0 m/S 699 mmHg 33%
    16:00 +18°C° 0 mm 0 m/S 699 mmHg 34%
    17:00 +18°C° 0.2 mm 1 m/S 698 mmHg 48%
    18:00 +14°C° 0.2 mm 1 m/S 698 mmHg 62%
    19:00 +12°C° 0.2 mm 2 m/S 697 mmHg 76%
    20:00 +10°C° 0.3 mm 1 m/S 698 mmHg 82%
    21:00 +9°C° 0.3 mm 1 m/S 698 mmHg 88%
    22:00 +6°C° 0.3 mm 0 m/S 698 mmHg 93%
    23:00 +6°C° 0 mm 0 m/S 698 mmHg 94%

    übermorgen, 5 Juni, Freitag

    Zeit Temperatur Niederschläge Wind Luftdruck Luftfeuchtigkeit
    00:00 +6°C° 0 mm 0 m/S 698 mmHg 94%
    01:00 +7°C° 0 mm 1 m/S 698 mmHg 94%
    02:00 +5°C° 0 mm 0 m/S 698 mmHg 95%
    03:00 +5°C° 0 mm 0 m/S 698 mmHg 95%
    04:00 +4°C° 0 mm 0 m/S 698 mmHg 96%
    05:00 +6°C° 0 mm 0 m/S 698 mmHg 92%
    06:00 +8°C° 0 mm 0 m/S 698 mmHg 88%
    07:00 +9°C° 0 mm 0 m/S 697 mmHg 84%
    08:00 +12°C° 0.1 mm 0 m/S 697 mmHg 75%
    09:00 +14°C° 0.1 mm 0 m/S 697 mmHg 66%
    10:00 +18°C° 0.1 mm 1 m/S 697 mmHg 58%
    11:00 +18°C° 0.4 mm 1 m/S 696 mmHg 57%
    12:00 +18°C° 0.4 mm 1 m/S 695 mmHg 56%
    13:00 +18°C° 0.4 mm 1 m/S 694 mmHg 56%
    14:00 +18°C° 0.3 mm 1 m/S 694 mmHg 57%
    15:00 +18°C° 0.3 mm 1 m/S 693 mmHg 58%
    16:00 +16°C° 0.3 mm 2 m/S 693 mmHg 60%
    17:00 +15°C° 0.3 mm 1 m/S 693 mmHg 68%
    18:00 +14°C° 0.3 mm 1 m/S 692 mmHg 77%
    19:00 +12°C° 0.3 mm 1 m/S 692 mmHg 86%
    20:00 +11°C° 0.1 mm 1 m/S 692 mmHg 89%
    21:00 +10°C° 0.1 mm 1 m/S 692 mmHg 92%
    22:00 +9°C° 0.1 mm 1 m/S 692 mmHg 95%
    23:00 +9°C° 0.1 mm 1 m/S 691 mmHg 95%

    6 Juni, Samstag

    Zeit Temperatur Niederschläge Wind Luftdruck Luftfeuchtigkeit
    00:00 +9°C° 0.1 mm 1 m/S 691 mmHg 96%
    01:00 +8°C° 0.1 mm 0 m/S 691 mmHg 96%
    02:00 +8°C° 0.1 mm 0 m/S 691 mmHg 96%
    03:00 +8°C° 0.1 mm 0 m/S 691 mmHg 97%
    04:00 +8°C° 0.1 mm 0 m/S 691 mmHg 97%
    05:00 +8°C° 0.4 mm 0 m/S 691 mmHg 97%
    06:00 +9°C° 0.4 mm 0 m/S 691 mmHg 97%
    07:00 +9°C° 0.4 mm 0 m/S 691 mmHg 97%
    08:00 +9°C° 0.3 mm 0 m/S 691 mmHg 97%
    09:00 +10°C° 0.3 mm 1 m/S 691 mmHg 96%
    10:00 +11°C° 0.3 mm 1 m/S 691 mmHg 95%
    11:00 +11°C° 0.3 mm 1 m/S 691 mmHg 94%
    12:00 +11°C° 0.3 mm 1 m/S 691 mmHg 92%
    13:00 +11°C° 0.3 mm 1 m/S 691 mmHg 91%
    14:00 +13°C° 0 mm 1 m/S 691 mmHg 82%
    15:00 +15°C° 0 mm 1 m/S 691 mmHg 72%
    16:00 +16°C° 0 mm 1 m/S 692 mmHg 62%
    17:00 +14°C° 0.2 mm 0 m/S 692 mmHg 69%
    18:00 +14°C° 0.2 mm 0 m/S 692 mmHg 75%
    19:00 +13°C° 0.2 mm 0 m/S 692 mmHg 81%
    20:00 +12°C° 0.3 mm 0 m/S 692 mmHg 85%
    21:00 +11°C° 0.3 mm 1 m/S 692 mmHg 90%
    22:00 +10°C° 0.3 mm 1 m/S 693 mmHg 94%
    23:00 +10°C° 0.1 mm 1 m/S 693 mmHg 95%

    7 Juni, Sonntag

    Zeit Temperatur Niederschläge Wind Luftdruck Luftfeuchtigkeit
    00:00 +10°C° 0.1 mm 1 m/S 693 mmHg 96%
    01:00 +10°C° 0.1 mm 1 m/S 693 mmHg 97%
    02:00 +10°C° 0.1 mm 1 m/S 693 mmHg 97%
    03:00 +9°C° 0.1 mm 1 m/S 693 mmHg 97%
    04:00 +9°C° 0.1 mm 1 m/S 694 mmHg 98%
    05:00 +9°C° 0.2 mm 1 m/S 694 mmHg 97%
    06:00 +9°C° 0.2 mm 2 m/S 694 mmHg 96%
    07:00 +9°C° 0.2 mm 2 m/S 694 mmHg 95%
    08:00 +9°C° 0.2 mm 2 m/S 694 mmHg 94%
    09:00 +9°C° 0.2 mm 2 m/S 694 mmHg 92%
    10:00 +9°C° 0.2 mm 2 m/S 694 mmHg 91%
    11:00 +9°C° 0.1 mm 2 m/S 694 mmHg 90%
    12:00 +11°C° 0.1 mm 1 m/S 694 mmHg 89%
    13:00 +11°C° 0.1 mm 1 m/S 695 mmHg 88%
    14:00 +11°C° 0.1 mm 1 m/S 695 mmHg 87%
    15:00 +12°C° 0.1 mm 1 m/S 695 mmHg 86%
    16:00 +12°C° 0.1 mm 1 m/S 695 mmHg 86%
    17:00 +12°C° 0.1 mm 1 m/S 695 mmHg 87%
    18:00 +12°C° 0.1 mm 1 m/S 695 mmHg 88%
    19:00 +12°C° 0.1 mm 1 m/S 695 mmHg 89%
    20:00 +11°C° 0 mm 1 m/S 695 mmHg 91%
    21:00 +10°C° 0 mm 1 m/S 695 mmHg 93%
    22:00 +9°C° 0 mm 2 m/S 695 mmHg 95%
    23:00 +9°C° 0.1 mm 2 m/S 696 mmHg 93%

    8 Juni, Montag

    Zeit Temperatur Niederschläge Wind Luftdruck Luftfeuchtigkeit
    00:00 +9°C° 0.1 mm 2 m/S 696 mmHg 92%
    01:00 +9°C° 0.1 mm 2 m/S 696 mmHg 91%
    02:00 +8°C° 0 mm 2 m/S 696 mmHg 91%
    03:00 +7°C° 0 mm 2 m/S 696 mmHg 90%
    04:00 +6°C° 0 mm 2 m/S 697 mmHg 89%
    05:00 +7°C° 0 mm 2 m/S 697 mmHg 84%
    06:00 +8°C° 0 mm 2 m/S 697 mmHg 78%
    07:00 +9°C° 0 mm 2 m/S 697 mmHg 73%
    08:00 +12°C° 0 mm 2 m/S 698 mmHg 64%
    09:00 +14°C° 0 mm 2 m/S 698 mmHg 55%
    10:00 +16°C° 0 mm 2 m/S 698 mmHg 45%
    11:00 +17°C° 0 mm 2 m/S 698 mmHg 42%
    12:00 +18°C° 0 mm 2 m/S 698 mmHg 39%
    13:00 +19°C° 0 mm 2 m/S 698 mmHg 36%
    14:00 +19°C° 0 mm 2 m/S 698 mmHg 34%
    15:00 +19°C° 0 mm 2 m/S 698 mmHg 33%
    16:00 +20°C° 0 mm 2 m/S 698 mmHg 31%
    17:00 +20°C° 0 mm 1 m/S 698 mmHg 39%
    18:00 +19°C° 0 mm 1 m/S 698 mmHg 47%
    19:00 +15°C° 0 mm 0 m/S 698 mmHg 55%
    20:00 +14°C° 0 mm 1 m/S 698 mmHg 56%
    21:00 +12°C° 0 mm 1 m/S 698 mmHg 58%
    22:00 +10°C° 0 mm 1 m/S 698 mmHg 59%
    23:00 +9°C° 0 mm 1 m/S 698 mmHg 61%
    Mehr zeigen